Погода в Тринидаде

Боливия     14°50′52″S   64°53′44″W
темп.,
°C
ветер,
м/с
пор.,
м/с
влажн.,
%
обл.,
%
осадки,
мм/ч
давл.,
гПа
погр.,
м
25 июля, вс
вс2523:00+23сз11520 0.0 101212
02:00+22с12560 0.0 101112
05:00+20сз12640 0.0 101226
08:00+22сз14595 0.0 1014126
11:00+31сз25363 0.0 1014870
14:00+35сз47273 0.0 10102491
17:00+33ссз36310 0.0 1008599
20:00+26с224716 0.0 100924
26 июля, пн
пн2623:00+24зсз11510 0.0 101012
02:00+23зсз11540 0.0 100913
05:00+21сз11595 0.0 100911
08:00+24с14555 0.0 1012110
11:00+33сз25330 0.0 1012981
14:00+36сз47264 0.0 10092878
17:00+34сз36303 0.0 1007710
20:00+27зсз12452 0.0 100812
27 июля, вт
вт2723:00+26сз11491 0.0 101011
02:00+24с11540 0.0 100911
05:00+23ююв115822 0.0 101011
08:00+25вюв135465 0.0 101386
11:00+26юв38481 0.2 1016783
14:00+30юв45320 0.2 10141208
17:00+28ююв47351 0.0 1012831
20:00+23юв412331 0.0 1015662
28 июля, ср
ср2823:00+20ююв413328 0.0 1017654
02:00+19юв4132980 0.0 1017765
05:00+18юв413280 0.0 1017837
08:00+18юв4143048 0.0 1020949
11:00+22юв51024100 0.0 10221231
14:00+25юв592134 0.0 10191570
17:00+22ююв69265 0.0 10191401
20:00+18ююв5142861 0.0 10221095
29 июля, чт
чт2923:00+18юв5162492 0.0 10241192
02:00+17юв51618100 0.0 10231275
05:00+18юв4151791 0.0 10231352
08:00+17юв41318100 0.0 10251305
11:00+19юв41220100 0.0 10261272
14:00+22ююв581812 0.0 10221427
17:00+22юв47223 0.0 10191320
20:00+16ююв2102989 0.0 1020236